[[{"header":{"parameterUnit":"m.s-1","parameterCategory":1,"la1":30.2991,"la2":30.254,"lo1":-89.0895,"lo2":-89.0444,"dy":0.0017,"dx":0.0017,"nx":28,"ny":28,"refTime":"2024-06-20T03:00:00:Z","depth":0,"parameterNumber":2,"parameterNumberName":"U-component_of_WINDS"},"data":[0,0,0,0,0,0,0,0,0,0,0,0,0,0,0,0,0,0,0,0,0,0,0,0,0,0,0,0,0,0,0,0,0,0,0,0,0,0,0,0,0,0,0,0,0,0,0,0,0,0,0,0,0,0,0,0,0,0,-5.188,-5.188,0,-5.182,-5.182,-5.1819,-5.1667,-5.1664,-5.166,-5.1657,-5.1599,-5.16,-5.1602,0,0,0,0,0,0,0,0,0,0,0,0,0,-5.1868,-5.1869,-5.1881,-5.188,-5.1879,-5.182,-5.182,-5.1819,-5.1667,-5.1663,-5.166,-5.1656,-5.1598,-5.16,-5.1602,0,0,0,0,0,0,0,0,0,0,0,0,0,-5.1848,-5.187,-5.1881,-5.1796,-5.1788,-5.1821,-5.182,-5.1819,-5.1668,-5.1663,-5.1659,-5.1654,-5.1598,-5.16,-5.1602,-5.1712,0,0,-5.1609,-5.161,0,0,0,0,0,0,0,0,-5.1849,-5.1848,-5.1809,-5.1802,-5.1793,-5.1746,-5.1794,-5.1783,-5.1669,-5.1714,-5.1657,-5.1652,-5.1652,-5.1649,-5.1649,-5.1709,-5.1707,-5.1609,-5.161,-5.1611,-5.1612,0,0,0,0,0,0,0,-5.1851,-5.185,-5.1857,-5.1809,-5.1799,-5.1763,-5.1755,-5.1791,-5.1711,-5.171,-5.1698,-5.1693,-5.1646,-5.1647,-5.1646,-5.1706,-5.1609,-5.1611,-5.1612,-5.1613,-5.1857,-5.1862,0,0,0,0,0,0,-5.1864,-5.1852,-5.1859,-5.1855,-5.181,-5.1767,-5.1758,-5.1766,-5.171,-5.1697,-5.1697,-5.1686,-5.1646,-5.1644,-5.1644,-5.177,-5.1611,-5.1613,-5.1614,-5.1852,-5.1858,-5.1864,0,0,0,0,0,0,-5.1864,-5.1866,-5.1861,-5.1851,-5.1847,-5.1772,-5.1783,-5.1768,-5.1768,-5.1701,-5.1686,-5.1712,-5.1642,-5.1641,-5.1697,-5.1766,-5.1614,-5.1616,-5.1846,-5.1854,-5.1861,-5.2025,0,0,0,0,0,0,-5.1864,-5.1867,-5.1907,-5.1853,-5.1848,-5.1914,-5.1787,-5.177,-5.1772,-5.1757,-5.1711,-5.1699,-5.1638,-5.1694,-5.1699,-5.1767,-5.1618,-5.1839,-5.1849,-5.1859,-5.2013,-5.2037,-5.2058,0,0,0,0,0,-5.1864,-5.1955,-5.1909,-5.1911,-5.1897,-5.1919,-5.1916,-5.1843,-5.1778,-5.1818,-5.1776,-5.17,-5.1758,-5.1701,-5.1705,-5.1775,-5.1835,-5.1847,-5.1858,-5.2003,-5.2032,-5.2058,0,0,0,0,0,0,-5.202,-5.1946,-5.1895,-5.1971,-5.1952,-5.1893,-5.1941,-5.1877,-5.1877,-5.1863,-5.1774,-5.1765,-5.1834,-5.1809,-5.1748,-5.188,-5.1784,-5.1797,-5.1893,-5.1921,-5.1943,-5.1948,-5.1619,0,0,0,0,0,-5.2063,-5.2086,-5.2021,-5.2094,-5.2087,-5.2017,-5.2023,-5.1969,-5.1947,-5.1938,-5.1899,-5.1881,-5.1895,-5.1907,-5.1916,-5.2009,-5.1998,-5.2059,-5.2081,-5.21,-5.2113,-5.2162,-5.2189,-5.1902,-5.1902,-5.1902,0,0,-5.2152,-5.2115,-5.2135,-5.2125,-5.2103,-5.2131,-5.2011,-5.2044,-5.2064,-5.1943,-5.1994,-5.1966,-5.194,-5.2016,-5.2047,-5.1997,-5.219,-5.2115,-5.2131,-5.2133,-5.2177,-5.2204,-5.2229,-5.191,-5.1909,-5.1907,0,0,-5.2329,-5.2302,-5.2361,-5.2343,-5.2313,-5.2266,-5.2281,-5.2231,-5.2208,-5.2257,-5.2168,-5.2191,-5.2217,-5.2203,-5.2199,-5.2374,-5.2305,-5.2379,-5.2498,-5.2547,-5.257,-5.2589,-5.2653,-5.2677,-5.2392,-5.2392,-5.2393,0,-5.2443,-5.248,-5.24,-5.244,-5.2439,-5.2331,-5.2391,-5.2378,-5.2353,-5.2356,-5.23,-5.2332,-5.2307,-5.2379,-5.2422,-5.2422,-5.2437,-5.2384,-5.2573,-5.2592,-5.2609,-5.2669,-5.2693,-5.2402,-5.2401,-5.24,-5.2399,0,-5.2623,-5.265,-5.2702,-5.2681,-5.2685,-5.2736,-5.2665,-5.268,-5.2626,-5.2586,-5.2639,-5.2605,-5.2607,-5.262,-5.2568,-5.2686,-5.2656,-5.2588,-5.2491,-5.2647,-5.2702,-5.2724,-5.2415,-5.2412,-5.2409,-5.2407,0,0,-5.2895,-5.283,-5.2851,-5.2841,-5.2801,-5.2821,-5.2867,-5.2868,-5.2884,-5.2871,-5.2909,-5.2934,-5.2872,-5.2868,-5.2814,-5.2857,-5.3,-5.2784,-5.2782,-5.2826,-5.313,-5.3182,-5.321,-5.2955,-5.2959,-5.2962,-5.3133,0,-5.3062,-5.3136,-5.3067,-5.3155,-5.3181,-5.308,-5.312,-5.3102,-5.3066,-5.3083,-5.3043,-5.3064,-5.2979,-5.2976,-5.3015,-5.2975,-5.306,-5.2961,-5.2991,-5.2993,-5.3001,-5.3238,-5.3293,-5.3456,-5.3154,-5.3157,-5.316,0,-5.3266,-5.3263,-5.3355,-5.3311,-5.3319,-5.3357,-5.3354,-5.3371,-5.3349,-5.3319,-5.3317,-5.3251,-5.3295,-5.32,-5.3261,-5.3195,-5.3204,-5.3186,-5.3191,-5.3191,-5.3086,-5.3246,-5.3506,-5.3531,-5.3193,-5.319,-5.3188,0,-5.3457,-5.3476,-5.3533,-5.3528,-5.3478,-5.3507,-5.3488,-5.3461,-5.3467,-5.3465,-5.3468,-5.3472,-5.3474,-5.3479,-5.3417,-5.3353,-5.3487,-5.3385,-5.3465,-5.3467,-5.3498,-5.3497,-5.3764,-5.3503,-5.3502,-5.3502,-5.3501,0,-5.3651,-5.3711,-5.3618,-5.3654,-5.3719,-5.364,-5.3708,-5.3678,-5.3655,-5.3685,-5.3598,-5.3628,-5.3543,-5.3565,-5.3516,-5.3576,-5.3577,-5.3556,-5.3543,-5.3564,-5.3567,-5.3568,-5.3556,-5.3508,-5.3507,-5.3505,-5.3504,0,-5.3875,-5.3815,-5.3871,-5.382,-5.3809,-5.386,-5.3816,-5.3848,-5.3807,-5.3846,-5.385,-5.3787,-5.3808,-5.3746,-5.3757,-5.3725,-5.3812,-5.3779,-5.3819,-5.381,-5.3893,-5.3887,-5.4171,-5.4205,-5.3922,-5.3925,-5.3927,0,-5.4003,-5.4047,-5.4001,-5.4015,-5.4,-5.4023,-5.4028,-5.3953,-5.3963,-5.3943,-5.3978,-5.3992,-5.3999,-5.4038,-5.3993,-5.4002,-5.397,-5.4069,-5.3971,-5.3992,-5.3973,-5.3972,-5.3977,-5.409,-5.4093,-5.4096,-5.4098,0,-5.4237,-5.4206,-5.4217,-5.422,-5.4229,-5.4227,-5.4219,-5.4236,-5.4155,-5.4172,-5.4192,-5.4198,-5.421,-5.4226,-5.4225,-5.4207,-5.4141,-5.413,-5.4149,-5.4172,-5.4193,-5.4184,-5.3876,-5.4123,-5.4121,-5.4119,-5.4118,-5.4117,-5.4418,-5.4453,-5.4427,-5.4443,-5.443,-5.4425,-5.4453,-5.4416,-5.4432,-5.4435,-5.439,-5.4421,-5.44,-5.4393,-5.4382,-5.4406,-5.436,-5.4388,-5.4395,-5.4403,-5.4418,-5.419,-5.4405,-5.4404,-5.4404,-5.4403,-5.4402,0,-5.4649,-5.4627,-5.4643,-5.4635,-5.4649,-5.4585,-5.4574,-5.459,-5.4618,-5.4603,-5.4612,-5.4637,-5.4653,-5.4611,-5.462,-5.4648,-5.4618,-5.4653,-5.465,-5.4648,-5.4457,-5.444,-5.4677,-5.4677,-5.4677,-5.4677,-5.4677,-5.4677,-5.477,-5.4827,-5.4794,-5.4844,-5.4822,-5.4851,-5.4851,-5.4847,-5.4835,-5.4867,-5.4879,-5.4851,-5.4827,-5.4834,-5.4846,-5.4833,-5.4842,-5.4888,-5.4865,-5.4688,-5.4661,-5.4635,-5.4619,-5.489,-5.489,-5.5054,-5.5055,-5.5057]},{"header":{"parameterUnit":"m.s-1","parameterCategory":1,"la1":30.2991,"la2":30.254,"lo1":-89.0895,"lo2":-89.0444,"dy":0.0017,"dx":0.0017,"nx":28,"ny":28,"refTime":"2024-06-20T03:00:00:Z","depth":0,"parameterNumber":3,"parameterNumberName":"V-component_of_WINDS"},"data":[0,0,0,0,0,0,0,0,0,0,0,0,0,0,0,0,0,0,0,0,0,0,0,0,0,0,0,0,0,0,0,0,0,0,0,0,0,0,0,0,0,0,0,0,0,0,0,0,0,0,0,0,0,0,0,0,0,0,1.4569,1.4569,0,1.4553,1.4553,1.4552,1.4568,1.4569,1.4569,1.457,1.4548,1.4546,1.4545,0,0,0,0,0,0,0,0,0,0,0,0,0,1.461,1.4609,1.4569,1.4569,1.4569,1.4553,1.4553,1.4552,1.4568,1.4569,1.4569,1.457,1.4548,1.4547,1.4545,0,0,0,0,0,0,0,0,0,0,0,0,0,1.4592,1.4609,1.4569,1.4575,1.4575,1.4553,1.4553,1.4552,1.4568,1.4569,1.457,1.457,1.4548,1.4547,1.4545,1.4515,0,0,1.454,1.4539,0,0,0,0,0,0,0,0,1.4593,1.4591,1.4574,1.4574,1.4575,1.4564,1.4559,1.454,1.4567,1.457,1.457,1.4571,1.4552,1.455,1.4544,1.4514,1.4513,1.4539,1.4538,1.4538,1.4537,0,0,0,0,0,0,0,1.4595,1.4592,1.4562,1.4574,1.4574,1.4577,1.4575,1.4555,1.4556,1.457,1.4571,1.4569,1.4552,1.4546,1.4544,1.4513,1.4539,1.4538,1.4537,1.4536,1.4456,1.4455,0,0,0,0,0,0,1.4596,1.4593,1.4563,1.4562,1.4587,1.4575,1.4574,1.4566,1.4556,1.4555,1.4569,1.457,1.4549,1.4546,1.4543,1.4507,1.4538,1.4536,1.4535,1.4457,1.4456,1.4455,0,0,0,0,0,0,1.4597,1.4593,1.4564,1.4578,1.4574,1.4573,1.4565,1.4565,1.4559,1.4555,1.4555,1.4563,1.4549,1.4546,1.4522,1.4506,1.4535,1.4533,1.4459,1.4457,1.4456,1.4434,0,0,0,0,0,0,1.4598,1.4593,1.4583,1.4577,1.4573,1.4544,1.4564,1.4564,1.4557,1.4559,1.4549,1.4548,1.455,1.4525,1.452,1.4504,1.4532,1.446,1.4458,1.4456,1.4436,1.4432,1.4428,0,0,0,0,0,1.4599,1.4576,1.4582,1.4578,1.456,1.4543,1.454,1.4544,1.4556,1.4544,1.4542,1.4549,1.451,1.4522,1.4517,1.4501,1.4461,1.4459,1.4456,1.4438,1.4433,1.4428,0,0,0,0,0,0,1.4577,1.4575,1.4582,1.4556,1.455,1.4546,1.4531,1.4538,1.4527,1.4529,1.4533,1.453,1.4505,1.4501,1.4515,1.4471,1.4487,1.4483,1.4474,1.4469,1.4466,1.4466,1.4531,0,0,0,0,0,1.4569,1.4557,1.4556,1.4533,1.453,1.4531,1.4524,1.4528,1.452,1.4517,1.4513,1.4504,1.4489,1.448,1.4466,1.4437,1.4434,1.4423,1.4419,1.4416,1.4412,1.4395,1.439,1.4447,1.4447,1.4447,0,0,1.4553,1.455,1.4542,1.4529,1.4524,1.451,1.4529,1.4513,1.4502,1.4514,1.4491,1.4488,1.4479,1.4452,1.444,1.4447,1.4396,1.4413,1.441,1.4408,1.4392,1.4387,1.4382,1.4446,1.4446,1.4446,0,0,1.4515,1.4513,1.4494,1.449,1.4483,1.4485,1.448,1.4476,1.4474,1.4453,1.4462,1.4448,1.4424,1.4417,1.441,1.4372,1.4377,1.4367,1.4346,1.433,1.4325,1.4321,1.4306,1.4301,1.4364,1.4364,1.4364,0,1.4494,1.4475,1.4483,1.4466,1.446,1.4474,1.4454,1.4449,1.4437,1.4432,1.4442,1.4412,1.4406,1.4378,1.4369,1.4363,1.4357,1.4367,1.4326,1.4321,1.4318,1.4303,1.4298,1.4363,1.4363,1.4363,1.4363,0,1.4449,1.4436,1.4421,1.4412,1.4404,1.4386,1.439,1.4381,1.4387,1.4387,1.4364,1.4359,1.4344,1.4339,1.4342,1.4311,1.4315,1.4325,1.4341,1.4311,1.4297,1.4292,1.4361,1.4361,1.4362,1.4362,0,0,1.4393,1.4392,1.4386,1.4382,1.4377,1.4366,1.4349,1.4337,1.4329,1.4322,1.4306,1.4286,1.4296,1.4288,1.4291,1.4278,1.4247,1.4289,1.4289,1.428,1.421,1.4201,1.4194,1.4252,1.4251,1.425,1.421,0,1.4354,1.4326,1.4333,1.4304,1.4291,1.4305,1.429,1.4285,1.4285,1.4273,1.4273,1.4258,1.4273,1.4268,1.4255,1.4253,1.4232,1.4257,1.4235,1.4234,1.4235,1.4188,1.4177,1.414,1.4205,1.4204,1.4204,0,1.4304,1.4297,1.4267,1.4265,1.426,1.4246,1.4236,1.4226,1.422,1.4221,1.4214,1.4221,1.4202,1.4221,1.4195,1.4211,1.4203,1.4201,1.42,1.4195,1.4215,1.418,1.4128,1.4121,1.4196,1.4196,1.4197,0,1.4264,1.4247,1.4227,1.4224,1.4222,1.4212,1.421,1.4206,1.4199,1.419,1.4185,1.4174,1.4167,1.4157,1.416,1.4174,1.4133,1.4152,1.4132,1.4132,1.412,1.412,1.4063,1.4119,1.4119,1.412,1.412,0,1.4218,1.4198,1.4209,1.4196,1.4175,1.4185,1.4163,1.4163,1.4159,1.4146,1.4157,1.4144,1.4151,1.4138,1.414,1.4117,1.4115,1.4114,1.4114,1.4111,1.4111,1.4104,1.4105,1.4118,1.4118,1.4119,1.4119,0,1.4168,1.4175,1.4154,1.4155,1.4155,1.4139,1.4139,1.4126,1.4129,1.4112,1.4109,1.4112,1.4097,1.4101,1.4084,1.4086,1.4057,1.4062,1.4059,1.4059,1.4038,1.4039,1.3972,1.3963,1.4028,1.4027,1.4027,0,1.4137,1.4123,1.4123,1.4116,1.4114,1.4102,1.4096,1.4105,1.4097,1.4091,1.4079,1.4066,1.4056,1.4032,1.4032,1.4019,1.4022,1.4,1.402,1.4018,1.4019,1.4019,1.4017,1.3995,1.3994,1.3994,1.3993,0,1.408,1.4085,1.4076,1.4068,1.406,1.4054,1.4049,1.4042,1.4051,1.4042,1.4028,1.4021,1.4006,1.3992,1.3981,1.3978,1.3986,1.3988,1.3982,1.3977,1.3975,1.3974,1.4045,1.3988,1.3989,1.3989,1.3989,1.399,1.4037,1.4025,1.4024,1.4013,1.4011,1.4006,1.3995,1.3997,1.3987,1.3976,1.3983,1.3966,1.3962,1.3949,1.3945,1.3931,1.3939,1.3931,1.3929,1.3926,1.3923,1.398,1.3929,1.393,1.393,1.393,1.393,0,1.3979,1.3979,1.397,1.3964,1.3955,1.3968,1.3963,1.3955,1.3941,1.3937,1.3928,1.3913,1.39,1.39,1.3888,1.3878,1.3881,1.3874,1.3873,1.3872,1.3917,1.3922,1.3871,1.3871,1.3871,1.3871,1.3871,1.3871,1.3947,1.3927,1.3932,1.3911,1.3912,1.3898,1.3894,1.3889,1.3887,1.3869,1.386,1.3861,1.3859,1.3847,1.3836,1.3836,1.383,1.3821,1.3822,1.3863,1.3869,1.3874,1.3879,1.382,1.382,1.3778,1.3778,1.3777]}]]